QPF
0.00 0.00 0.00 0.00 0.00 0.00 0.00 0.00 0.00 0.00 0.00 0.00 0.00 0.00 0.00 0.00 0.00 0.00 0.00 0.00 0.00 0.00 0.00 0.00 0.00 0.00 0.00 0.00 0.00 0.00 0.00 0.00 0.00 0.00 0.00 0.00 0.00 0.00 0.00 0.00 0.00 0.00 0.00 0.00
0.00 0.00 0.00 0.00 0.00 0.00 0.00 0.00 0.00 0.00 0.00 0.00 0.00 0.00 0.00 0.00 0.00 0.00 0.00 0.00 0.00 0.00 0.00 0.00 0.00 0.00 0.00 0.00 0.00 0.00 0.00 0.00 0.00 0.00 0.00 0.00 0.00 0.00 0.00 0.00 0.00 0.00 0.00 0.00
0.01 0.00 0.00 0.00 0.00 0.00 0.00 0.00 0.00 0.00 0.00 0.00 0.00 0.00 0.00 0.00 0.00 0.00 0.00 0.00 0.00 0.00 0.00 0.00 0.00 0.00 0.00 0.00 0.00 0.00 0.00 0.00 0.00 0.00 0.00 0.00 0.00 0.00 0.00 0.00 0.00 0.00 0.00 0.00
0.01 0.01 0.01 0.00 0.00 0.00 0.00 0.00 0.00 0.00 0.00 0.00 0.00 0.00 0.00 0.00 0.00 0.00 0.00 0.00 0.00 0.00 0.00 0.00 0.00 0.00 0.00 0.00 0.00 0.00 0.00 0.00 0.00 0.00 0.00 0.00 0.00 0.00 0.00 0.00 0.00 0.00 0.00 0.00
0.02 0.01 0.01 0.00 0.00 0.00 0.00 0.00 0.00 0.00 0.00 0.00 0.00 0.00 0.00 0.00 0.00 0.00 0.00 0.00 0.00 0.00 0.00 0.00 0.00 0.00 0.00 0.00 0.00 0.00 0.00 0.00 0.00 0.00 0.00 0.00 0.00 0.00 0.00 0.00 0.00 0.00 0.00 0.00
0.02 0.01 0.00 0.00 0.00 0.00 0.00 0.00 0.00 0.00 0.00 0.00 0.00 0.00 0.00 0.00 0.00 0.00 0.00 0.00 0.00 0.00 0.00 0.00 0.00 0.00 0.00 0.00 0.00 0.00 0.00 0.00 0.00 0.00 0.00 0.00 0.00 0.00 0.00 0.00 0.00 0.00 0.00 0.00
0.01 0.01 0.00 0.00 0.00 0.00 0.00 0.00 0.00 0.00 0.00 0.00 0.00 0.00 0.00 0.00 0.00 0.00 0.00 0.00 0.00 0.00 0.00 0.00 0.00 0.00 0.00 0.00 0.00 0.00 0.00 0.00 0.00 0.00 0.00 0.00 0.00 0.00 0.00 0.00 0.00 0.00 0.00 0.00
0.01 0.02 0.00 0.00 0.00 0.00 0.00 0.00 0.00 0.00 0.00 0.00 0.00 0.00 0.00 0.00 0.00 0.00 0.00 0.00 0.00 0.00 0.00 0.00 0.00 0.00 0.00 0.00 0.00 0.00 0.00 0.00 0.00 0.00 0.00 0.00 0.00 0.00 0.00 0.00 0.00 0.00 0.00 0.00
0.00 0.00 0.00 0.00 0.00 0.00 0.01 0.00 0.00 0.00 0.01 0.00 0.00 0.01 0.01 0.01 0.00 0.00 0.00 0.01 0.01 0.00 0.00 0.00 0.00 0.00 0.00 0.00 0.00 0.00 0.00 0.00 0.00 0.00 0.00 0.00 0.00 0.00 0.00 0.00 0.00 0.00 0.00 0.00
0.00 0.00 0.00 0.00 0.00 0.00 0.00 0.00 0.01 0.01 0.01 0.01 0.01 0.01 0.01 0.01 0.01 0.01 0.01 0.01 0.01 0.01 0.01 0.00 0.00 0.00 0.00 0.00 0.00 0.00 0.00 0.00 0.00 0.00 0.00 0.00 0.00 0.00 0.00 0.00 0.00 0.00 0.00 0.00
0.01 0.00 0.00 0.00 0.00 0.00 0.00 0.00 0.01 0.01 0.01 0.01 0.01 0.01 0.01 0.01 0.01 0.01 0.01 0.01 0.01 0.01 0.00 0.00 0.00 0.00 0.00 0.00 0.00 0.00 0.00 0.00 0.00 0.00 0.00 0.00 0.00 0.00 0.00 0.00 0.00 0.00 0.00 0.00
0.01 0.01 0.00 0.00 0.00 0.00 0.00 0.00 0.00 0.00 0.01 0.01 0.00 0.00 0.00 0.00 0.00 0.00 0.00 0.00 0.00 0.00 0.00 0.00 0.00 0.00 0.00 0.00 0.00 0.00 0.00 0.00 0.00 0.00 0.00 0.00 0.00 0.00 0.00 0.00 0.00 0.00 0.00 0.00
0.01 0.01 0.01 0.01 0.00 0.00 0.00 0.00 0.00 0.00 0.00 0.00 0.00 0.00 0.00 0.00 0.00 0.01 0.01 0.00 0.00 0.00 0.00 0.00 0.00 0.00 0.00 0.00 0.00 0.00 0.00 0.00 0.00 0.00 0.00 0.00 0.00 0.00 0.00 0.00 0.00 0.00 0.00 0.00
0.01 0.00 0.00 0.01 0.01 0.01 0.00 0.00 0.00 0.00 0.00 0.00 0.00 0.00 0.00 0.00 0.00 0.01 0.01 0.01 0.00 0.00 0.00 0.00 0.00 0.00 0.00 0.00 0.00 0.00 0.00 0.00 0.00 0.00 0.00 0.00 0.00 0.00 0.00 0.00 0.00 0.00 0.00 0.00
0.00 0.00 0.00 0.01 0.01 0.00 0.00 0.00 0.00 0.00 0.00 0.00 0.00 0.00 0.00 0.00 0.00 0.01 0.00 0.00 0.00 0.00 0.00 0.00 0.00 0.00 0.00 0.00 0.00 0.00 0.00 0.00 0.00 0.00 0.00 0.00 0.00 0.00 0.00 0.00 0.00 0.00 0.00 0.00
0.00 0.00 0.00 0.00 0.00 0.00 0.00 0.00 0.00 0.00 0.00 0.00 0.00 0.00 0.00 0.00 0.00 0.00 0.00 0.00 0.00 0.00 0.01 0.01 0.00 0.00 0.00 0.00 0.00 0.00 0.00 0.01 0.00 0.00 0.00 0.00 0.00 0.00 0.00 0.00 0.00 0.00 0.00 0.00
0.00 0.00 0.00 0.00 0.00 0.00 0.00 0.00 0.00 0.00 0.00 0.00 0.00 0.00 0.00 0.00 0.00 0.00 0.00 0.00 0.00 0.00 0.00 0.01 0.00 0.01 0.01 0.01 0.01 0.01 0.01 0.01 0.01 0.01 0.00 0.00 0.00 0.00 0.00 0.00 0.00 0.00 0.00 0.00
0.01 0.01 0.01 0.01 0.01 0.01 0.00 0.00 0.00 0.00 0.00 0.00 0.00 0.00 0.00 0.00 0.00 0.00 0.00 0.00 0.00 0.00 0.00 0.01 0.01 0.01 0.01 0.01 0.01 0.01 0.01 0.01 0.01 0.01 0.01 0.01 0.01 0.01 0.00 0.00 0.00 0.00 0.00 0.00
0.02 0.02 0.02 0.02 0.01 0.01 0.01 0.00 0.00 0.00 0.00 0.00 0.00 0.00 0.00 0.00 0.00 0.00 0.00 0.00 0.00 0.01 0.01 0.01 0.02 0.01 0.01 0.01 0.02 0.02 0.02 0.02 0.02 0.02 0.02 0.02 0.02 0.01 0.01 0.01 0.00 0.00 0.00 0.00
0.03 0.02 0.02 0.01 0.01 0.00 0.00 0.00 0.00 0.00 0.00 0.00 0.00 0.00 0.00 0.00 0.00 0.00 0.00 0.01 0.01 0.01 0.01 0.02 0.01 0.01 0.02 0.02 0.03 0.02 0.02 0.03 0.03 0.03 0.03 0.03 0.02 0.02 0.02 0.01 0.01 0.01 0.01 0.01
0.02 0.02 0.01 0.01 0.01 0.01 0.00 0.00 0.00 0.00 0.00 0.00 0.00 0.00 0.00 0.00 0.00 0.00 0.00 0.01 0.01 0.01 0.01 0.02 0.02 0.02 0.02 0.03 0.03 0.02 0.02 0.03 0.03 0.04 0.04 0.04 0.04 0.03 0.03 0.02 0.02 0.02 0.01 0.01
0.02 0.01 0.01 0.01 0.01 0.01 0.01 0.01 0.01 0.01 0.01 0.00 0.00 0.00 0.00 0.00 0.00 0.01 0.01 0.01 0.01 0.01 0.01 0.01 0.01 0.02 0.02 0.03 0.03 0.02 0.03 0.04 0.04 0.04 0.05 0.04 0.04 0.04 0.04 0.04 0.04 0.03 0.02 0.02
0.02 0.01 0.01 0.01 0.01 0.01 0.01 0.00 0.00 0.00 0.00 0.00 0.00 0.00 0.00 0.00 0.00 0.00 0.00 0.00 0.00 0.01 0.01 0.01 0.01 0.02 0.02 0.02 0.02 0.02 0.03 0.04 0.04 0.04 0.05 0.05 0.05 0.05 0.04 0.04 0.04 0.04 0.03 0.03
0.02 0.01 0.01 0.01 0.01 0.01 0.00 0.00 0.00 0.00 0.00 0.00 0.00 0.00 0.00 0.00 0.00 0.00 0.00 0.00 0.01 0.01 0.01 0.01 0.01 0.02 0.02 0.02 0.02 0.03 0.03 0.04 0.04 0.05 0.05 0.05 0.05 0.05 0.04 0.04 0.04 0.03 0.03 0.03
0.02 0.01 0.00 0.00 0.00 0.00 0.00 0.00 0.00 0.00 0.00 0.00 0.00 0.00 0.00 0.00 0.00 0.00 0.00 0.00 0.01 0.01 0.01 0.01 0.01 0.01 0.02 0.02 0.02 0.03 0.03 0.04 0.04 0.04 0.05 0.04 0.04 0.04 0.04 0.04 0.04 0.04 0.03 0.03
0.01 0.01 0.00 0.00 0.00 0.00 0.00 0.00 0.00 0.00 0.00 0.00 0.00 0.00 0.00 0.00 0.00 0.00 0.01 0.01 0.01 0.01 0.01 0.01 0.01 0.01 0.01 0.02 0.02 0.02 0.03 0.03 0.03 0.03 0.03 0.04 0.04 0.04 0.04 0.04 0.03 0.03 0.03 0.02
0.00 0.00 0.00 0.00 0.00 0.00 0.00 0.00 0.00 0.00 0.00 0.00 0.00 0.00 0.00 0.00 0.00 0.01 0.01 0.01 0.01 0.01 0.01 0.01 0.01 0.01 0.01 0.02 0.02 0.02 0.02 0.02 0.03 0.03 0.03 0.03 0.03 0.03 0.03 0.03 0.03 0.02 0.02 0.02
MSLP
1014.77 1014.99 1015.15 1015.24 1015.26 1015.18 1015.01 1014.75 1014.42 1014.04 1013.63 1013.23 1012.88 1012.60 1012.41 1012.35 1012.42 1012.62 1012.94 1013.38 1013.91 1014.51 1015.16 1015.83 1016.50 1017.16 1017.78 1018.34 1018.83 1019.26 1019.60 1019.88 1020.10 1020.27 1020.40 1020.52 1020.64 1020.75 1020.87 1020.99 1021.10 1021.21 1021.32 1021.41
1014.67 1014.85 1014.95 1014.96 1014.86 1014.68 1014.40 1014.07 1013.70 1013.31 1012.93 1012.59 1012.31 1012.11 1012.00 1011.98 1012.07 1012.27 1012.56 1012.96 1013.45 1014.03 1014.67 1015.36 1016.08 1016.80 1017.50 1018.15 1018.72 1019.21 1019.61 1019.92 1020.15 1020.32 1020.45 1020.56 1020.68 1020.80 1020.94 1021.10 1021.26 1021.43 1021.59 1021.75
1014.42 1014.57 1014.62 1014.55 1014.36 1014.08 1013.73 1013.33 1012.92 1012.53 1012.18 1011.89 1011.68 1011.55 1011.51 1011.54 1011.66 1011.86 1012.14 1012.52 1012.99 1013.54 1014.17 1014.88 1015.62 1016.39 1017.14 1017.85 1018.49 1019.04 1019.49 1019.84 1020.10 1020.30 1020.45 1020.59 1020.73 1020.89 1021.07 1021.27 1021.49 1021.71 1021.92 1022.13
1014.03 1014.13 1014.12 1013.98 1013.73 1013.37 1012.96 1012.52 1012.09 1011.71 1011.40 1011.16 1011.02 1010.97 1010.99 1011.09 1011.25 1011.48 1011.77 1012.14 1012.60 1013.13 1013.76 1014.45 1015.20 1015.98 1016.76 1017.51 1018.18 1018.78 1019.27 1019.67 1019.98 1020.23 1020.44 1020.63 1020.83 1021.04 1021.28 1021.53 1021.80 1022.06 1022.32 1022.55
1013.53 1013.56 1013.48 1013.27 1012.96 1012.55 1012.10 1011.65 1011.22 1010.87 1010.60 1010.44 1010.38 1010.41 1010.51 1010.69 1010.91 1011.19 1011.51 1011.89 1012.35 1012.88 1013.48 1014.15 1014.88 1015.65 1016.42 1017.16 1017.85 1018.47 1019.00 1019.45 1019.82 1020.13 1020.41 1020.68 1020.95 1021.24 1021.54 1021.85 1022.16 1022.46 1022.73 1022.97
1012.99 1012.92 1012.75 1012.48 1012.11 1011.67 1011.20 1010.75 1010.36 1010.05 1009.85 1009.76 1009.79 1009.92 1010.12 1010.38 1010.69 1011.02 1011.40 1011.81 1012.27 1012.79 1013.37 1014.01 1014.70 1015.42 1016.15 1016.86 1017.54 1018.16 1018.71 1019.19 1019.62 1020.01 1020.37 1020.72 1021.07 1021.43 1021.79 1022.15 1022.50 1022.81 1023.09 1023.32
1012.50 1012.30 1012.03 1011.67 1011.25 1010.80 1010.33 1009.91 1009.56 1009.32 1009.19 1009.20 1009.32 1009.54 1009.84 1010.20 1010.59 1011.00 1011.43 1011.88 1012.36 1012.87 1013.42 1014.02 1014.65 1015.30 1015.97 1016.63 1017.26 1017.86 1018.41 1018.92 1019.40 1019.85 1020.28 1020.71 1021.14 1021.56 1021.98 1022.38 1022.74 1023.06 1023.33 1023.53
1012.11 1011.77 1011.38 1010.95 1010.49 1010.03 1009.59 1009.21 1008.92 1008.74 1008.70 1008.79 1009.00 1009.32 1009.71 1010.15 1010.62 1011.10 1011.58 1012.07 1012.56 1013.06 1013.59 1014.13 1014.70 1015.28 1015.86 1016.45 1017.03 1017.58 1018.12 1018.64 1019.15 1019.64 1020.14 1020.63 1021.11 1021.59 1022.04 1022.45 1022.82 1023.13 1023.38 1023.56
1011.86 1011.37 1010.89 1010.39 1009.91 1009.45 1009.04 1008.72 1008.49 1008.39 1008.43 1008.59 1008.87 1009.25 1009.71 1010.21 1010.73 1011.27 1011.79 1012.30 1012.81 1013.30 1013.80 1014.29 1014.79 1015.30 1015.81 1016.32 1016.83 1017.34 1017.85 1018.36 1018.87 1019.40 1019.92 1020.45 1020.97 1021.48 1021.94 1022.36 1022.72 1023.01 1023.23 1023.39
1011.73 1011.12 1010.55 1010.02 1009.53 1009.11 1008.75 1008.49 1008.34 1008.30 1008.40 1008.61 1008.94 1009.35 1009.84 1010.36 1010.91 1011.46 1012.01 1012.53 1013.03 1013.51 1013.98 1014.43 1014.87 1015.31 1015.75 1016.19 1016.64 1017.10 1017.57 1018.07 1018.58 1019.11 1019.65 1020.19 1020.72 1021.23 1021.69 1022.10 1022.44 1022.71 1022.91 1023.06
1011.65 1010.97 1010.37 1009.83 1009.38 1009.01 1008.72 1008.53 1008.45 1008.48 1008.61 1008.85 1009.19 1009.60 1010.07 1010.58 1011.11 1011.65 1012.17 1012.68 1013.16 1013.62 1014.06 1014.47 1014.87 1015.26 1015.65 1016.03 1016.43 1016.85 1017.29 1017.76 1018.26 1018.78 1019.32 1019.86 1020.38 1020.88 1021.33 1021.71 1022.03 1022.28 1022.47 1022.60
1011.55 1010.86 1010.27 1009.78 1009.40 1009.11 1008.91 1008.81 1008.80 1008.88 1009.04 1009.28 1009.59 1009.97 1010.39 1010.84 1011.31 1011.79 1012.27 1012.73 1013.18 1013.60 1014.00 1014.38 1014.75 1015.10 1015.45 1015.80 1016.16 1016.55 1016.97 1017.42 1017.91 1018.42 1018.94 1019.47 1019.98 1020.46 1020.89 1021.25 1021.55 1021.79 1021.96 1022.10
1011.36 1010.71 1010.19 1009.79 1009.51 1009.34 1009.25 1009.24 1009.31 1009.43 1009.61 1009.84 1010.11 1010.42 1010.76 1011.12 1011.50 1011.90 1012.29 1012.69 1013.07 1013.45 1013.80 1014.15 1014.48 1014.80 1015.13 1015.46 1015.81 1016.19 1016.60 1017.04 1017.52 1018.02 1018.53 1019.05 1019.54 1020.00 1020.41 1020.76 1021.04 1021.27 1021.44 1021.58
1011.04 1010.49 1010.09 1009.82 1009.67 1009.63 1009.66 1009.76 1009.90 1010.06 1010.26 1010.46 1010.68 1010.92 1011.17 1011.43 1011.70 1011.99 1012.28 1012.58 1012.89 1013.19 1013.49 1013.79 1014.09 1014.39 1014.69 1015.02 1015.36 1015.74 1016.15 1016.59 1017.07 1017.57 1018.08 1018.59 1019.07 1019.52 1019.92 1020.25 1020.53 1020.75 1020.93 1021.07
1010.64 1010.22 1009.96 1009.84 1009.84 1009.93 1010.09 1010.29 1010.51 1010.72 1010.93 1011.12 1011.30 1011.46 1011.62 1011.77 1011.93 1012.10 1012.28 1012.47 1012.68 1012.89 1013.12 1013.36 1013.61 1013.88 1014.16 1014.47 1014.81 1015.19 1015.61 1016.06 1016.55 1017.05 1017.57 1018.08 1018.56 1019.00 1019.39 1019.72 1020.00 1020.22 1020.40 1020.55
1010.24 1009.97 1009.86 1009.88 1010.03 1010.25 1010.52 1010.81 1011.10 1011.36 1011.59 1011.77 1011.92 1012.02 1012.10 1012.16 1012.21 1012.27 1012.33 1012.41 1012.50 1012.62 1012.76 1012.92 1013.11 1013.32 1013.57 1013.86 1014.20 1014.57 1014.99 1015.45 1015.95 1016.46 1016.98 1017.49 1017.97 1018.41 1018.80 1019.14 1019.41 1019.63 1019.81 1019.97
1009.96 1009.83 1009.85 1010.01 1010.27 1010.60 1010.96 1011.33 1011.68 1011.98 1012.23 1012.41 1012.53 1012.60 1012.61 1012.60 1012.56 1012.51 1012.47 1012.43 1012.41 1012.42 1012.45 1012.52 1012.63 1012.78 1012.98 1013.24 1013.54 1013.90 1014.31 1014.77 1015.27 1015.78 1016.30 1016.81 1017.29 1017.73 1018.11 1018.44 1018.72 1018.94 1019.12 1019.28
1009.93 1009.92 1010.04 1010.29 1010.63 1011.03 1011.45 1011.87 1012.25 1012.58 1012.84 1013.02 1013.13 1013.17 1013.15 1013.08 1012.97 1012.84 1012.70 1012.56 1012.43 1012.33 1012.26 1012.23 1012.24 1012.31 1012.44 1012.64 1012.90 1013.22 1013.61 1014.04 1014.52 1015.02 1015.53 1016.02 1016.49 1016.91 1017.29 1017.61 1017.88 1018.11 1018.29 1018.45
1010.24 1010.31 1010.50 1010.80 1011.17 1011.59 1012.03 1012.45 1012.84 1013.17 1013.43 1013.62 1013.72 1013.74 1013.69 1013.58 1013.42 1013.23 1013.01 1012.79 1012.57 1012.36 1012.19 1012.05 1011.97 1011.95 1012.00 1012.12 1012.31 1012.58 1012.92 1013.31 1013.74 1014.20 1014.67 1015.13 1015.57 1015.97 1016.33 1016.64 1016.89 1017.11 1017.30 1017.47
1010.91 1011.02 1011.23 1011.53 1011.90 1012.30 1012.71 1013.11 1013.47 1013.78 1014.02 1014.18 1014.27 1014.27 1014.21 1014.07 1013.88 1013.65 1013.37 1013.09 1012.79 1012.50 1012.24 1012.01 1011.83 1011.72 1011.68 1011.71 1011.83 1012.02 1012.28 1012.60 1012.97 1013.37 1013.78 1014.19 1014.57 1014.93 1015.26 1015.54 1015.78 1016.00 1016.19 1016.36
1011.86 1011.98 1012.19 1012.47 1012.79 1013.14 1013.49 1013.83 1014.13 1014.39 1014.58 1014.71 1014.77 1014.76 1014.67 1014.52 1014.30 1014.04 1013.74 1013.40 1013.05 1012.71 1012.37 1012.07 1011.82 1011.62 1011.49 1011.44 1011.46 1011.57 1011.74 1011.97 1012.25 1012.57 1012.90 1013.23 1013.55 1013.86 1014.13 1014.38 1014.61 1014.81 1015.01 1015.20
1012.97 1013.09 1013.27 1013.50 1013.77 1014.04 1014.32 1014.57 1014.80 1014.98 1015.11 1015.19 1015.21 1015.16 1015.05 1014.88 1014.66 1014.38 1014.06 1013.70 1013.32 1012.94 1012.56 1012.21 1011.89 1011.63 1011.43 1011.29 1011.23 1011.24 1011.32 1011.45 1011.63 1011.84 1012.08 1012.33 1012.57 1012.81 1013.03 1013.24 1013.45 1013.64 1013.84 1014.05
1014.08 1014.19 1014.34 1014.53 1014.72 1014.92 1015.11 1015.28 1015.42 1015.53 1015.59 1015.60 1015.57 1015.49 1015.35 1015.16 1014.92 1014.64 1014.31 1013.95 1013.57 1013.17 1012.78 1012.40 1012.04 1011.73 1011.47 1011.27 1011.13 1011.05 1011.03 1011.06 1011.14 1011.25 1011.38 1011.53 1011.69 1011.86 1012.03 1012.20 1012.37 1012.56 1012.77 1012.99
1015.03 1015.14 1015.26 1015.41 1015.55 1015.68 1015.80 1015.89 1015.96 1015.98 1015.98 1015.93 1015.85 1015.73 1015.56 1015.36 1015.11 1014.82 1014.50 1014.15 1013.77 1013.38 1012.99 1012.60 1012.24 1011.90 1011.59 1011.34 1011.13 1010.98 1010.87 1010.81 1010.79 1010.80 1010.84 1010.90 1010.98 1011.07 1011.18 1011.31 1011.46 1011.63 1011.84 1012.07
1015.72 1015.82 1015.93 1016.05 1016.16 1016.25 1016.32 1016.36 1016.36 1016.34 1016.28 1016.18 1016.06 1015.90 1015.71 1015.49 1015.24 1014.96 1014.65 1014.31 1013.95 1013.58 1013.20 1012.82 1012.45 1012.10 1011.77 1011.48 1011.23 1011.01 1010.83 1010.69 1010.58 1010.51 1010.46 1010.44 1010.44 1010.47 1010.53 1010.62 1010.74 1010.89 1011.08 1011.31
1016.07 1016.18 1016.29 1016.41 1016.51 1016.59 1016.64 1016.65 1016.63 1016.57 1016.48 1016.36 1016.21 1016.03 1015.82 1015.60 1015.35 1015.07 1014.77 1014.45 1014.11 1013.76 1013.40 1013.03 1012.67 1012.32 1011.98 1011.67 1011.38 1011.12 1010.89 1010.68 1010.51 1010.36 1010.25 1010.16 1010.10 1010.07 1010.08 1010.13 1010.21 1010.34 1010.51 1010.72
1016.12 1016.24 1016.36 1016.49 1016.60 1016.69 1016.74 1016.76 1016.74 1016.69 1016.59 1016.47 1016.31 1016.13 1015.93 1015.70 1015.45 1015.19 1014.90 1014.59 1014.27 1013.93 1013.58 1013.23 1012.88 1012.53 1012.19 1011.86 1011.55 1011.26 1010.99 1010.75 1010.53 1010.33 1010.17 1010.03 1009.92 1009.84 1009.81 1009.81 1009.85 1009.95 1010.08 1010.26
Thickness
5485 5493 5491 5493 5497 5495 5497 5501 5499 5514 5518 5536 5539 5540 5540 5539 5538 5536 5534 5533 5532 5530 5528 5526 5525 5525 5526 5526 5526 5527 5527 5527 5527 5528 5529 5530 5531 5532 5533 5533 5534 5533 5533 5533
5486 5492 5489 5491 5495 5496 5499 5503 5505 5512 5522 5533 5533 5533 5533 5534 5533 5533 5533 5533 5530 5527 5523 5521 5520 5519 5518 5518 5517 5517 5517 5517 5517 5517 5518 5518 5519 5520 5520 5521 5521 5521 5521 5521
5475 5483 5490 5486 5499 5500 5500 5504 5508 5515 5530 5531 5531 5531 5532 5531 5530 5533 5534 5532 5529 5526 5523 5520 5517 5515 5512 5511 5509 5508 5508 5507 5507 5507 5508 5508 5508 5508 5509 5509 5509 5508 5508 5508
5470 5477 5477 5501 5509 5508 5506 5511 5512 5519 5525 5527 5531 5533 5532 5531 5531 5531 5531 5529 5527 5523 5519 5516 5512 5508 5506 5503 5502 5500 5499 5499 5498 5498 5498 5498 5498 5498 5497 5497 5497 5496 5496 5496
5465 5466 5476 5496 5505 5503 5501 5508 5514 5516 5522 5524 5523 5524 5526 5528 5529 5531 5530 5527 5524 5520 5516 5510 5506 5503 5499 5496 5494 5492 5491 5491 5491 5490 5489 5489 5488 5488 5487 5486 5486 5485 5485 5484
5463 5468 5472 5496 5506 5505 5505 5506 5516 5514 5515 5516 5515 5514 5523 5526 5524 5523 5521 5518 5515 5511 5507 5503 5500 5497 5493 5489 5487 5486 5486 5485 5484 5483 5482 5481 5480 5479 5478 5477 5476 5475 5474 5472
5463 5465 5473 5492 5498 5501 5496 5504 5512 5512 5512 5511 5510 5515 5517 5516 5515 5514 5512 5509 5507 5504 5500 5498 5494 5491 5487 5484 5483 5482 5480 5478 5477 5476 5475 5473 5472 5470 5469 5468 5466 5464 5463 5462
5462 5465 5474 5494 5492 5492 5496 5503 5506 5508 5509 5508 5507 5507 5506 5506 5504 5503 5501 5499 5498 5495 5492 5490 5488 5485 5482 5480 5478 5476 5473 5471 5470 5469 5468 5466 5464 5462 5461 5459 5457 5455 5454 5453
5464 5475 5484 5485 5488 5492 5494 5496 5500 5501 5503 5503 5502 5500 5499 5497 5495 5494 5493 5491 5490 5488 5485 5482 5481 5480 5478 5475 5472 5469 5467 5465 5464 5462 5461 5459 5457 5455 5453 5451 5449 5448 5447 5445
5460 5471 5477 5480 5482 5485 5488 5491 5493 5495 5496 5496 5496 5494 5492 5489 5487 5487 5486 5484 5483 5481 5479 5477 5475 5474 5473 5470 5467 5464 5462 5460 5458 5456 5454 5453 5452 5450 5448 5445 5443 5443 5441 5439
5456 5466 5472 5480 5480 5482 5483 5483 5484 5486 5488 5488 5488 5486 5484 5482 5481 5480 5480 5479 5477 5476 5475 5474 5471 5469 5467 5465 5462 5459 5457 5455 5453 5451 5449 5447 5446 5444 5443 5442 5441 5439 5437 5436
5453 5461 5464 5471 5474 5475 5476 5477 5477 5478 5479 5479 5479 5479 5478 5476 5475 5474 5473 5472 5471 5471 5470 5469 5467 5465 5463 5461 5459 5456 5453 5451 5449 5447 5444 5442 5440 5438 5438 5437 5437 5436 5435 5432
5449 5454 5456 5461 5464 5466 5468 5469 5469 5470 5470 5469 5469 5469 5469 5468 5467 5467 5467 5466 5466 5466 5466 5464 5463 5461 5459 5457 5455 5453 5451 5448 5445 5443 5440 5437 5435 5433 5432 5432 5432 5432 5431 5429
5441 5445 5451 5455 5456 5458 5459 5459 5459 5459 5459 5459 5459 5459 5459 5459 5459 5459 5460 5460 5460 5460 5460 5459 5458 5457 5456 5453 5451 5449 5447 5445 5442 5439 5437 5434 5432 5430 5428 5426 5424 5423 5424 5424
5434 5438 5443 5446 5447 5448 5449 5450 5450 5449 5449 5449 5449 5450 5450 5450 5451 5452 5452 5453 5454 5454 5454 5453 5453 5452 5451 5449 5447 5445 5443 5441 5438 5435 5433 5430 5428 5425 5423 5421 5420 5418 5416 5415
5427 5431 5435 5437 5439 5440 5442 5443 5442 5441 5440 5441 5440 5441 5441 5442 5443 5444 5445 5446 5446 5447 5447 5447 5447 5448 5446 5445 5443 5440 5439 5437 5435 5431 5428 5426 5423 5421 5418 5416 5415 5412 5411 5410
5420 5425 5427 5430 5431 5433 5433 5433 5433 5432 5431 5431 5431 5432 5433 5434 5435 5436 5437 5438 5439 5440 5441 5441 5441 5441 5441 5439 5438 5436 5434 5432 5431 5427 5424 5422 5420 5418 5416 5413 5412 5410 5409 5407
5417 5421 5423 5424 5424 5424 5424 5424 5423 5423 5422 5422 5422 5423 5424 5424 5426 5427 5428 5429 5430 5432 5432 5432 5433 5434 5434 5433 5432 5431 5429 5427 5425 5423 5421 5418 5416 5414 5412 5410 5409 5406 5405 5402
5409 5411 5413 5415 5415 5415 5414 5413 5412 5412 5412 5412 5413 5413 5414 5415 5416 5417 5418 5420 5422 5423 5423 5424 5426 5426 5426 5426 5426 5424 5423 5421 5419 5417 5415 5414 5412 5409 5407 5406 5404 5402 5400 5397
5398 5400 5402 5403 5403 5403 5402 5402 5402 5402 5402 5403 5404 5405 5405 5406 5407 5408 5409 5411 5412 5412 5413 5415 5416 5417 5417 5418 5418 5417 5416 5415 5413 5412 5410 5408 5407 5405 5403 5401 5399 5397 5395 5392
5388 5390 5391 5392 5392 5392 5391 5391 5392 5393 5393 5394 5395 5396 5396 5397 5398 5399 5400 5402 5403 5403 5404 5406 5407 5408 5409 5410 5410 5409 5408 5408 5407 5406 5404 5403 5401 5399 5398 5396 5394 5392 5390 5387
5378 5380 5381 5381 5382 5381 5381 5382 5383 5384 5385 5385 5386 5387 5388 5388 5389 5391 5392 5392 5393 5395 5396 5397 5398 5400 5401 5402 5402 5402 5401 5401 5400 5399 5398 5397 5395 5393 5392 5390 5387 5386 5384 5381
5369 5370 5371 5371 5372 5372 5372 5373 5374 5375 5376 5377 5377 5378 5379 5380 5380 5382 5384 5384 5385 5387 5389 5389 5391 5393 5394 5394 5394 5394 5394 5394 5393 5393 5392 5391 5389 5387 5385 5383 5381 5379 5377 5374
5360 5361 5361 5362 5362 5363 5364 5365 5365 5366 5367 5368 5369 5370 5371 5372 5373 5373 5374 5376 5378 5380 5381 5382 5384 5385 5387 5386 5386 5386 5385 5385 5385 5385 5384 5383 5381 5380 5378 5376 5374 5372 5370 5368
5352 5353 5353 5354 5355 5356 5357 5357 5358 5358 5359 5360 5361 5362 5363 5363 5364 5365 5366 5367 5370 5372 5372 5374 5376 5377 5377 5376 5377 5377 5377 5377 5377 5376 5376 5375 5374 5372 5370 5368 5367 5364 5362 5360
5345 5346 5347 5348 5348 5349 5350 5350 5350 5351 5352 5353 5354 5355 5355 5356 5356 5357 5358 5360 5361 5363 5364 5364 5365 5367 5367 5367 5368 5368 5368 5368 5368 5367 5367 5366 5365 5363 5362 5360 5358 5356 5354 5352
5339 5340 5340 5341 5342 5342 5343 5343 5344 5344 5345 5345 5346 5347 5348 5348 5349 5350 5351 5352 5353 5354 5355 5356 5357 5357 5358 5358 5359 5359 5359 5359 5358 5358 5357 5356 5355 5354 5353 5351 5349 5347 5345 5343